Weather History for Cherry Point, NC

Change the Weather History Date:

Friday, November 9, 2012

  Actual Average Record
Temperature  
Mean Temperature 46 °F -  
Max Temperature 60 °F 64 °F 78 °F (2000)
Min Temperature 32 °F 43 °F 32 °F (2012)
Degree Days  
Heating Degree Days 19    
Moisture  
Dew Point 32 °F    
Average Humidity 62    
Maximum Humidity 89    
Minimum Humidity 31    
Precipitation  
Precipitation 0.00 in - - ()
Sea Level Pressure  
Sea Level Pressure 30.21 in    
Wind  
Wind Speed 5 mph ()    
Max Wind Speed 15 mph    
Max Gust Speed 16 mph    
Visibility 10.0 miles    
Events      
Averages and records for this station are not official NWS values.
T = Trace of Precipitation, MM = Missing Value Source: Averaged Metar Reports

Daily Weather History Graph

Daily Weather History Graph

Search for Another Location

Airport:

Trip Planner

Search our weather history database for the weather conditions in past years. The results will help you decide how hot, cold, wet, or windy it might be!

Date:

Astronomy

Nov. 09, 2012 Rise Set
Actual Time 6:36 AM EST 5:05 PM EST
Civil Twilight 6:09 AM EST 5:32 PM EST
Nautical Twilight 5:39 AM EST 6:02 PM EST
Astronomical Twilight 5:09 AM EST 6:32 PM EST
Moon 1:43 AM EST (11/9) 2:08 PM EST (11/9)
Length of Visible Light 11h 22m
Length of Day
10h 29m
Waning Crescent, 23% of the Moon is Illuminated
Nov 9
Waning Crescent
Nov 13
New
Nov 20
First Quarter
Nov 28
Full
Dec 6
Last Quarter

Hourly Weather History & Observations

Time (EST) Temp. Windchill Dew Point Humidity Pressure Visibility Wind Dir Wind Speed Gust Speed Precip Events Conditions
12:54 AM 46.9 °F - 27.0 °F 46% 30.09 in 10.0 mi North 15.0 mph - N/A   Clear
1:54 AM 45.0 °F 40.6 °F 27.0 °F 49% 30.09 in 10.0 mi North 8.1 mph - N/A   Clear
2:54 AM 42.1 °F 38.4 °F 28.9 °F 60% 30.12 in 10.0 mi NNW 5.8 mph - N/A   Clear
3:54 AM 35.1 °F - 30.0 °F 82% 30.13 in 10.0 mi Calm Calm - N/A   Clear
4:54 AM 33.1 °F - 28.9 °F 85% 30.15 in 10.0 mi Calm Calm - N/A   Clear
5:54 AM 32.0 °F 28.7 °F 28.0 °F 85% 30.17 in 10.0 mi WSW 3.5 mph - N/A   Clear
6:54 AM 33.1 °F - 28.9 °F 85% 30.20 in 10.0 mi Calm Calm - N/A   Clear
7:54 AM 39.0 °F - 33.1 °F 79% 30.22 in 10.0 mi Calm Calm - N/A   Clear
8:54 AM 48.9 °F - 28.0 °F 44% 30.23 in 10.0 mi North 10.4 mph - N/A   Clear
9:54 AM 51.1 °F - 30.0 °F 44% 30.25 in 10.0 mi North 8.1 mph - N/A   Clear
10:54 AM 55.0 °F - 30.0 °F 38% 30.25 in 10.0 mi North 12.7 mph - N/A   Clear
11:54 AM 57.0 °F - 28.9 °F 34% 30.24 in 10.0 mi North 10.4 mph 16.1 mph N/A   Clear
12:54 PM 59.0 °F - 28.0 °F 31% 30.22 in 10.0 mi NNW 6.9 mph - N/A   Clear
1:54 PM 60.1 °F - 30.0 °F 32% 30.20 in 10.0 mi NNW 8.1 mph - N/A   Clear
2:54 PM 60.1 °F - 28.9 °F 31% 30.20 in 10.0 mi North 8.1 mph - N/A   Clear
3:54 PM 60.1 °F - 30.0 °F 32% 30.21 in 10.0 mi NNW 3.5 mph - N/A   Clear
4:54 PM 52.0 °F - 35.1 °F 53% 30.22 in 10.0 mi Calm Calm - N/A   Clear
5:54 PM 48.0 °F - 37.0 °F 66% 30.23 in 10.0 mi Calm Calm - N/A   Clear
6:54 PM 44.1 °F - 39.9 °F 85% 30.24 in 10.0 mi Calm Calm - N/A   Clear
7:54 PM 43.0 °F - 39.0 °F 86% 30.25 in 10.0 mi Calm Calm - N/A   Clear
8:54 PM 41.0 °F - 37.0 °F 86% 30.25 in 10.0 mi Calm Calm - N/A   Clear
9:54 PM 39.9 °F - 37.0 °F 89% 30.27 in 10.0 mi Calm Calm - N/A   Clear
10:54 PM 39.0 °F - 36.0 °F 89% 30.27 in 10.0 mi Calm Calm - N/A   Clear
11:54 PM 39.0 °F - 36.0 °F 89% 30.28 in 9.0 mi Calm Calm - N/A   Clear